Date String (YYYY-MM-DD hh:mm:ss) UTC,Instrument flags,absolute air pressure of the measurement (hPa),sample flow rate (lpm),inlet stack bypass flow (lpm),air temperature of the measurement (°C),ambient temperature measured by the external sensor (°C),aerosol sample conditioner tube jacket temperature (°C),OPC LED temperature (°C),internal box temperature (°C),relative humidity of the measurement (%),span deviation,mass concentration of particles derived from Lorenz-Mie calculation of OPC scattering (μg/m³),mass concentration of particles derived from Lorenz-Mie calculation of OPC scattering (μg/m³),mass concentration of particles derived from Lorenz-Mie calculation of OPC scattering (μg/m³)
DateTimeUTC,F1_M11,P_M11,Q1_M11,Q2_M11,T1_M11,T2_M11,T3_M11,T4_M11,T5_M11,U1_M11,ZSPAN_M11,X2_M11,X0_M11,X1_M11
2023-10-03 16:00:00,SystemResetWarning,0826.4,5.01,000.00,028.7,024.7,000.0,037.2,030.2,12.0,0000.0,0001.59,0003.77,0001.14
2023-10-03 16:01:00,SystemResetWarning,0826.4,5.00,000.00,028.6,025.0,000.0,037.2,030.0,12.3,0000.0,0001.59,0003.90,0001.13
2023-10-03 16:02:00,SystemResetWarning,0826.3,5.00,000.00,028.6,025.3,000.0,037.2,030.0,12.1,0000.0,0001.56,0003.84,0001.10
2023-10-03 16:03:00,SystemResetWarning,0826.4,5.00,000.00,028.5,025.7,000.0,037.2,030.0,12.6,0000.0,0001.53,0003.85,0001.07
2023-10-03 16:04:00,SystemResetWarning,0826.4,5.00,000.00,028.5,026.0,000.0,037.1,030.1,12.5,0000.0,0001.49,0003.80,0001.02
2023-10-03 16:05:00,SystemResetWarning,0826.4,5.01,000.00,028.5,026.2,000.0,037.1,030.1,11.7,0000.0,0001.42,0003.04,0000.98
2023-10-03 16:06:00,SystemResetWarning,0826.4,5.00,000.00,028.5,026.4,000.0,037.1,030.1,11.6,0000.0,0001.38,0002.93,0000.94
2023-10-03 16:07:00,SystemResetWarning,0826.3,4.99,000.00,028.5,026.6,000.0,037.1,030.2,11.8,0000.0,0001.37,0002.78,0000.92
2023-10-03 16:08:00,SystemResetWarning,0826.3,4.99,000.00,028.5,026.8,000.0,037.1,030.2,12.3,0000.0,0001.37,0002.76,0000.92
2023-10-03 16:09:00,SystemResetWarning,0826.4,5.01,000.00,028.5,026.9,000.0,037.1,030.2,12.4,0000.0,0001.38,0002.89,0000.93
2023-10-03 16:10:00,SystemResetWarning,0826.3,5.01,000.00,028.6,027.0,000.0,037.1,030.2,12.2,0000.0,0001.41,0003.25,0000.93
2023-10-03 16:11:00,SystemResetWarning,0826.5,5.00,000.00,028.6,027.1,000.0,037.1,030.3,11.8,0000.0,0001.45,0003.59,0000.95
2023-10-03 16:12:00,SystemResetWarning,0826.5,5.00,000.00,028.6,027.2,000.0,037.1,030.3,11.9,0000.0,0001.45,0004.52,0000.97
2023-10-03 16:13:00,SystemResetWarning,0826.4,4.99,000.00,028.6,027.2,000.0,037.1,030.3,11.8,0000.0,0001.47,0004.48,0001.00
2023-10-03 16:14:00,SystemResetWarning,0826.4,5.00,000.00,028.6,027.3,000.0,037.1,030.3,12.0,0000.0,0001.56,0004.66,0001.06
2023-10-03 16:15:00,SystemResetWarning,0826.4,5.01,000.00,028.7,027.4,000.0,037.1,030.3,12.1,0000.0,0001.63,0004.82,0001.10
2023-10-03 16:16:00,SystemResetWarning,0826.4,5.01,000.00,028.7,027.4,000.0,037.1,030.4,12.0,0000.0,0001.72,0005.06,0001.14
2023-10-03 16:17:00,SystemResetWarning,0826.4,5.00,000.00,028.7,027.5,000.0,037.1,030.4,11.8,0000.0,0001.76,0004.98,0001.17
2023-10-03 16:18:00,SystemResetWarning,0826.4,5.00,000.00,028.8,027.5,000.0,037.2,030.4,11.6,0000.0,0001.80,0005.06,0001.19
2023-10-03 16:19:00,SystemResetWarning,0826.4,5.00,000.00,028.8,027.6,000.0,037.2,030.5,11.6,0000.0,0001.78,0004.96,0001.19
2023-10-03 16:20:00,SystemResetWarning,0826.3,4.99,000.00,028.8,027.6,000.0,037.2,030.5,11.0,0000.0,0001.79,0004.93,0001.20
2023-10-03 16:21:00,SystemResetWarning,0826.4,5.00,000.00,028.8,027.6,000.0,037.2,030.5,10.0,0000.0,0001.76,0004.58,0001.21
2023-10-03 16:22:00,SystemResetWarning,0826.3,5.01,000.00,028.8,027.6,000.0,037.2,030.5,10.2,0000.0,0001.72,0004.31,0001.19
2023-10-03 16:23:00,SystemResetWarning,0826.3,5.01,000.00,028.9,027.6,000.0,037.2,030.5,10.6,0000.0,0001.77,0003.64,0001.18
2023-10-03 16:24:00,SystemResetWarning,0826.3,5.00,000.00,028.9,027.6,000.0,037.3,030.5,10.7,0000.0,0001.72,0003.58,0001.14
2023-10-03 16:25:00,SystemResetWarning,0826.3,4.99,000.00,028.9,027.6,000.0,037.3,030.5,10.9,0000.0,0001.65,0003.65,0001.09
2023-10-03 16:26:00,SystemResetWarning,0826.3,4.99,000.00,028.9,027.6,000.0,037.3,030.5,10.6,0000.0,0001.60,0003.58,0001.05
2023-10-03 16:27:00,SystemResetWarning,0826.2,5.00,000.00,028.9,027.6,000.0,037.3,030.5,10.9,0000.0,0001.55,0003.35,0001.02
2023-10-03 16:28:00,SystemResetWarning,0826.2,4.99,000.00,028.9,027.0,000.0,037.3,030.5,11.0,0000.0,0001.54,0003.37,0001.01
2023-10-03 16:29:00,SystemResetWarning,0826.2,5.01,000.00,028.8,025.4,000.0,037.2,030.3,11.1,0000.0,0001.54,0003.44,0001.00
2023-10-03 16:30:00,SystemResetWarning,0826.2,5.00,000.00,028.7,025.0,000.0,037.2,030.2,11.1,0000.0,0001.57,0003.57,0001.00
2023-10-03 16:31:00,SystemResetWarning,0826.3,5.01,000.00,028.6,025.1,000.0,037.2,030.0,11.1,0000.0,0001.60,0003.59,0000.99
2023-10-03 16:32:00,SystemResetWarning,0826.3,5.01,000.00,028.6,025.4,000.0,037.1,030.0,11.3,0000.0,0001.61,0003.59,0000.99
2023-10-03 16:33:00,SystemResetWarning,0826.3,5.00,000.00,028.5,025.7,000.0,037.1,030.0,11.2,0000.0,0001.57,0003.36,0000.98
2023-10-03 16:34:00,SystemResetWarning,0826.3,5.00,000.00,028.5,026.0,000.0,037.1,030.1,11.5,0000.0,0001.54,0003.09,0000.99
2023-10-03 16:35:00,SystemResetWarning,0826.3,5.00,000.00,028.5,026.2,000.0,037.1,030.1,11.5,0000.0,0001.53,0003.01,0000.98
2023-10-03 16:36:00,SystemResetWarning,0826.3,5.00,000.00,028.5,026.4,000.0,037.1,030.1,11.9,0000.0,0001.48,0002.76,0000.97
2023-10-03 16:37:00,SystemResetWarning,0826.2,4.99,000.00,028.5,026.5,000.0,037.1,030.1,12.0,0000.0,0001.46,0002.58,0000.97
2023-10-03 16:38:00,SystemResetWarning,0826.2,4.99,000.00,028.5,026.7,000.0,037.1,030.1,11.6,0000.0,0001.45,0002.54,0000.97
2023-10-03 16:39:00,SystemResetWarning,0826.2,5.00,000.00,028.5,026.8,000.0,037.1,030.1,11.7,0000.0,0001.44,0002.50,0000.96
2023-10-03 16:40:00,SystemResetWarning,0826.2,5.00,000.00,028.5,026.8,000.0,037.1,030.2,11.6,0000.0,0001.41,0002.37,0000.95
2023-10-03 16:41:00,SystemResetWarning,0826.3,5.01,000.00,028.5,026.9,000.0,037.1,030.2,11.7,0000.0,0001.41,0002.35,0000.95
2023-10-03 16:42:00,SystemResetWarning,0826.3,5.01,000.00,028.5,027.0,000.0,037.0,030.2,11.7,0000.0,0001.38,0002.31,0000.94
2023-10-03 16:43:00,SystemResetWarning,0826.3,5.00,000.00,028.6,027.0,000.0,037.1,030.2,11.7,0000.0,0001.36,0002.60,0000.93
2023-10-03 16:44:00,SystemResetWarning,0826.4,4.99,000.00,028.6,027.1,000.0,037.1,030.3,11.6,0000.0,0001.35,0002.70,0000.92
2023-10-03 16:45:00,SystemResetWarning,0826.4,4.99,000.00,028.6,027.1,000.0,037.1,030.3,11.9,0000.0,0001.36,0003.31,0000.90
2023-10-03 16:46:00,SystemResetWarning,0826.4,5.01,000.00,028.6,027.2,000.0,037.1,030.3,11.6,0000.0,0001.38,0003.61,0000.90
2023-10-03 16:47:00,SystemResetWarning,0826.4,5.01,000.00,028.6,027.2,000.0,037.1,030.3,11.5,0000.0,0001.41,0004.92,0000.89
2023-10-03 16:48:00,SystemResetWarning,0826.4,5.00,000.00,028.6,027.2,000.0,037.1,030.3,11.8,0000.0,0001.47,0005.41,0000.89
2023-10-03 16:49:00,SystemResetWarning,0826.5,4.99,000.00,028.6,027.3,000.0,037.1,030.3,11.8,0000.0,0001.41,0005.79,0000.88
2023-10-03 16:50:00,SystemResetWarning,0826.6,4.99,000.00,028.7,027.3,000.0,037.1,030.3,11.9,0000.0,0001.38,0005.72,0000.87
2023-10-03 16:51:00,SystemResetWarning,0826.5,5.00,000.00,028.7,027.3,000.0,037.1,030.3,12.2,0000.0,0001.37,0005.72,0000.88
2023-10-03 16:52:00,SystemResetWarning,0826.5,5.00,000.00,028.7,027.3,000.0,037.1,030.4,12.0,0000.0,0001.36,0005.79,0000.88
2023-10-03 16:53:00,SystemResetWarning,0826.5,5.00,000.00,028.7,027.4,000.0,037.1,030.4,11.7,0000.0,0001.36,0005.80,0000.88
2023-10-03 16:54:00,SystemResetWarning,0826.5,5.00,000.00,028.7,027.4,000.0,037.1,030.4,11.7,0000.0,0001.38,0005.71,0000.87
2023-10-03 16:55:00,SystemResetWarning,0826.6,5.01,000.00,028.7,027.4,000.0,037.2,030.4,11.6,0000.0,0001.38,0005.63,0000.87
2023-10-03 16:56:00,SystemResetWarning,0826.5,5.00,000.00,028.8,027.4,000.0,037.2,030.4,11.5,0000.0,0001.33,0004.94,0000.88
2023-10-03 16:57:00,SystemResetWarning,0826.5,4.99,000.00,028.8,027.4,000.0,037.2,030.4,11.5,0000.0,0001.30,0004.64,0000.85
2023-10-03 16:58:00,SystemResetWarning,0826.5,5.00,000.00,028.8,027.4,000.0,037.2,030.4,11.3,0000.0,0001.29,0003.59,0000.86
2023-10-03 16:59:00,SystemResetWarning,0826.6,5.00,000.00,028.8,027.5,000.0,037.2,030.5,11.3,0000.0,0001.27,0003.38,0000.86
